Wind_Speed
24 24 24 24 24 25 25 25 25 25 25 25 24 24 23 22 22 22 23 23 22 22 22 22 22 21 22 22 21 21 20 20 20 20 20 20 20 21 20 20 19 19 20
25 24 24 24 24 25 25 25 26 26 26 26 26 26 25 24 24 24 24 24 23 23 23 23 23 23 23 23 22 22 22 21 21 21 21 21 21 21 22 22 21 21 20
26 25 24 24 25 26 26 27 27 27 28 27 27 26 25 25 25 25 25 26 25 25 25 24 24 23 24 25 25 24 23 23 23 23 23 23 23 23 22 22 22 22 22
27 26 26 26 26 26 26 26 26 28 29 28 27 27 26 26 26 26 27 27 27 26 26 26 26 25 26 26 26 26 25 25 25 24 24 24 24 24 23 23 23 22 23
27 27 27 27 26 26 26 27 27 28 28 29 28 28 28 28 27 27 27 27 27 27 27 26 26 26 26 27 28 27 26 26 26 25 25 25 25 25 25 25 25 24 24
28 28 28 27 27 27 27 28 28 28 29 29 29 29 28 28 28 27 27 27 27 27 27 28 27 27 27 27 28 28 28 27 26 27 26 26 26 26 26 26 26 27 26
28 28 28 28 28 28 28 28 28 29 30 31 30 30 29 28 27 27 27 28 28 28 28 28 28 28 28 28 29 29 28 28 27 27 27 27 27 27 27 26 27 28 28
28 29 29 29 28 29 28 29 29 30 31 31 30 30 29 28 28 28 27 28 27 28 28 29 29 28 29 30 29 29 29 29 28 28 28 28 28 28 28 28 28 28 28
28 29 30 30 30 29 28 28 29 28 28 28 29 29 29 28 28 28 28 28 28 28 28 29 29 29 29 29 29 29 29 29 29 28 28 29 29 28 29 29 28 28 28
28 27 27 28 28 28 28 28 27 27 28 27 28 29 29 28 28 29 30 29 29 29 29 29 29 29 29 29 29 29 29 29 29 29 29 28 28 29 29 29 28 28 28
27 26 27 27 27 27 28 27 26 27 27 27 27 28 28 28 28 29 28 29 29 30 30 30 30 30 29 29 29 29 29 29 29 29 29 29 29 28 29 29 28 28 28
26 26 27 27 27 26 26 25 25 26 26 27 27 27 27 27 28 29 29 29 31 31 30 30 30 29 29 29 28 29 29 30 30 29 29 29 29 29 29 29 29 29 29
25 26 28 27 27 26 25 24 24 25 26 26 26 26 27 27 28 29 29 29 30 31 30 30 29 29 28 28 29 30 30 30 31 30 29 29 29 29 29 30 29 30 30
24 25 26 25 25 25 25 25 25 25 25 25 26 26 27 27 28 28 28 29 29 29 29 29 29 29 29 29 29 30 30 30 31 31 30 30 30 30 29 30 29 29 29
23 23 23 23 23 24 24 25 25 25 25 25 25 25 26 26 26 27 27 27 28 28 28 29 29 29 29 30 30 30 30 31 30 29 29 30 30 30 29 30 30 30 29
21 21 20 21 22 23 24 24 25 25 24 24 24 24 24 25 25 26 26 26 26 26 27 28 29 29 29 29 30 30 30 30 29 29 29 28 29 29 30 30 30 30 30
20 19 20 20 20 21 22 22 23 23 23 23 23 24 24 24 25 25 25 25 25 25 25 26 27 28 28 29 30 31 31 31 31 31 30 30 30 30 30 31 31 30 30
18 19 19 19 19 20 21 21 21 21 22 22 22 21 22 23 24 24 25 25 25 25 25 25 25 26 27 28 29 31 31 31 31 30 30 30 30 30 30 31 31 31 30
17 18 18 18 19 20 20 20 19 20 20 20 20 20 20 21 22 22 23 24 24 25 25 26 25 26 26 28 28 30 30 30 30 30 31 31 30 30 30 31 31 31 31
16 17 17 18 18 19 19 19 19 19 18 19 19 19 20 21 21 21 22 23 23 23 24 26 26 26 27 27 28 29 29 30 29 30 30 30 29 30 31 31 32 32 31
15 15 16 16 16 16 17 17 17 17 17 18 19 19 20 20 20 20 21 22 22 23 24 25 25 25 26 27 27 28 28 29 29 29 30 30 29 30 30 31 31 31 31
14 14 15 15 15 15 16 16 16 17 18 18 18 19 19 20 20 21 21 22 23 24 25 25 26 26 26 26 27 28 29 29 29 30 30 31 31 30 30 30 31 31 31
14 14 14 14 14 15 15 16 16 17 18 18 18 19 19 20 20 20 21 22 23 23 24 24 25 25 25 24 25 26 27 28 28 29 30 30 30 30 30 30 31 31 31
14 14 14 13 13 13 14 15 16 16 17 18 18 18 19 19 20 20 20 20 21 21 22 22 23 23 23 23 24 25 26 26 27 28 28 28 28 29 29 28 29 30 30
12 12 12 12 12 12 13 14 15 15 16 16 17 17 18 18 19 19 19 20 20 20 20 21 21 21 22 22 23 24 25 25 24 25 26 26 26 26 26 27 28 29 29
11 12 12 11 12 12 13 13 13 14 14 15 15 15 16 16 16 17 18 18 18 18 18 18 19 20 20 21 22 23 23 23 24 24 24 24 24 25 26 26 26 27 28
Wind_Direction
276 275 276 276 277 277 277 276 276 277 277 276 275 274 274 271 269 268 267 265 265 264 264 263 263 263 259 256 257 258 258 257 256 253 251 249 246 246 247 249 249 247 247
273 273 273 275 276 276 275 274 274 275 277 277 274 273 272 270 269 267 267 265 264 262 262 263 262 261 258 256 255 256 258 257 255 254 252 252 250 247 248 250 250 248 248
274 274 274 276 274 274 272 272 274 274 276 276 273 271 271 269 267 266 265 265 263 263 263 263 261 260 259 257 255 255 257 257 256 254 253 253 251 249 249 249 249 249 249
276 274 273 275 273 272 273 273 274 275 275 274 272 270 270 269 268 266 265 263 262 263 264 263 261 261 260 257 257 255 257 257 257 256 254 252 251 249 249 249 249 249 249
277 276 273 273 271 271 272 274 273 274 274 274 272 271 270 270 268 267 265 264 262 262 263 262 261 260 260 258 256 256 256 256 256 256 255 253 251 251 249 248 249 249 250
276 274 272 270 270 269 271 273 272 271 272 272 271 270 270 269 267 265 264 264 263 262 262 263 262 260 259 258 256 256 255 254 255 254 255 254 252 252 251 250 249 250 251
275 272 272 270 270 270 272 273 273 273 271 269 268 268 268 267 265 264 263 263 263 262 263 263 262 261 259 257 256 255 254 253 253 252 253 253 252 252 253 253 252 251 252
276 273 272 270 270 271 271 272 275 275 274 270 268 267 265 265 266 264 263 262 262 262 263 262 261 260 259 258 256 253 253 253 253 252 252 252 252 253 252 253 254 254 254
277 274 270 269 271 270 270 271 275 275 274 271 267 266 263 264 264 263 263 262 262 263 264 263 262 261 260 259 257 254 253 253 253 253 252 252 252 252 251 253 254 254 253
276 275 272 271 271 269 268 270 272 272 272 271 269 266 265 264 264 262 262 262 263 263 264 263 261 261 259 257 256 254 252 252 252 253 253 252 252 252 252 253 253 252 252
276 274 272 272 272 269 267 268 271 272 272 272 270 267 265 265 264 263 261 263 263 263 263 261 260 260 257 256 255 253 251 251 252 252 251 251 251 253 252 251 252 252 253
279 276 272 273 271 270 269 267 271 272 272 271 269 268 266 265 265 264 263 262 263 263 262 261 260 258 256 255 253 251 250 250 251 251 252 253 253 252 253 253 252 254 255
280 277 273 272 270 270 269 268 269 272 272 270 268 266 266 265 266 265 265 263 263 263 262 261 259 258 256 255 252 250 250 252 251 251 252 254 255 254 254 253 254 255 255
281 279 275 271 269 268 268 269 269 271 271 271 269 268 267 267 267 266 265 264 262 260 261 261 260 258 257 255 253 252 251 252 251 251 252 253 254 254 254 253 255 256 255
283 281 278 272 270 269 270 272 272 273 273 273 272 270 268 268 269 268 267 265 262 259 259 260 259 258 257 256 255 253 252 252 251 251 252 252 252 253 253 252 255 255 256
285 283 280 277 274 272 272 273 274 276 276 275 274 273 271 268 270 270 268 266 263 259 257 257 257 257 256 256 255 253 252 251 251 252 253 252 251 252 253 253 256 256 255
290 287 284 278 276 276 276 278 279 277 278 277 277 275 272 271 269 268 269 268 266 262 259 257 257 257 254 254 253 252 252 252 252 252 253 254 253 254 255 253 254 254 256
289 288 286 281 278 278 280 281 281 278 279 279 279 278 276 276 273 271 269 268 267 265 261 259 259 258 255 256 255 253 252 253 253 252 252 253 253 253 254 254 255 255 256
290 289 287 285 282 280 281 281 282 281 280 279 278 278 278 278 277 272 269 268 267 266 263 261 259 259 258 257 256 254 253 253 254 253 252 252 253 253 255 255 256 255 255
294 292 289 288 286 282 281 282 283 283 281 281 280 281 281 280 278 273 272 271 268 267 267 264 262 260 258 258 257 255 254 253 254 253 252 252 252 253 254 254 254 254 254
301 297 294 291 288 285 282 283 286 285 284 284 282 281 281 280 280 278 275 273 270 269 268 266 265 263 261 259 257 255 254 254 253 253 253 253 253 253 253 254 253 254 255
305 302 298 294 291 289 287 287 288 288 287 287 285 283 283 283 282 281 279 276 273 271 270 268 266 265 263 261 259 256 254 254 254 254 255 254 253 254 254 254 253 253 254
308 307 307 304 299 295 292 290 289 290 289 290 289 286 284 283 283 283 283 279 276 273 272 271 269 267 265 261 260 257 256 253 253 255 256 255 254 253 253 253 253 253 253
310 309 309 309 309 306 302 297 293 293 294 293 291 288 286 285 286 287 287 284 278 277 275 272 271 267 265 262 260 260 257 256 255 255 255 255 254 253 252 252 253 253 253
318 318 319 316 315 313 308 308 306 302 300 300 297 293 293 290 289 289 290 288 284 281 278 275 274 272 269 264 263 261 259 256 257 256 255 255 254 254 254 254 254 254 254
324 326 328 327 324 324 323 323 322 314 310 310 308 305 303 300 299 295 294 292 288 283 281 278 276 274 272 269 265 262 259 257 256 255 254 254 255 255 255 255 255 254 253
Height
5841 5840 5839 5839 5839 5838 5837 5837 5836 5836 5836 5836 5835 5835 5835 5835 5835 5835 5835 5836 5836 5836 5837 5837 5837 5838 5839 5840 5841 5841 5842 5843 5844 5845 5846 5847 5848 5849 5850 5852 5853 5854 5855
5835 5834 5834 5833 5833 5832 5832 5831 5831 5830 5830 5830 5830 5830 5829 5829 5830 5830 5830 5830 5831 5831 5831 5832 5832 5833 5834 5835 5835 5836 5837 5838 5839 5840 5841 5842 5843 5844 5846 5847 5848 5849 5850
5829 5828 5828 5827 5827 5826 5825 5825 5825 5824 5824 5824 5824 5824 5823 5823 5823 5823 5824 5824 5824 5825 5826 5826 5826 5827 5828 5829 5830 5831 5832 5833 5834 5835 5836 5837 5838 5839 5840 5842 5843 5844 5845
5823 5822 5822 5821 5820 5820 5819 5819 5818 5818 5818 5818 5817 5817 5817 5817 5817 5817 5817 5817 5818 5819 5819 5820 5821 5822 5822 5823 5824 5825 5826 5827 5828 5829 5830 5831 5832 5834 5835 5836 5838 5839 5840
5816 5815 5815 5814 5814 5813 5813 5812 5812 5811 5811 5811 5810 5810 5810 5810 5810 5810 5810 5811 5811 5812 5813 5813 5814 5815 5816 5817 5818 5819 5820 5821 5822 5823 5824 5825 5827 5828 5830 5831 5832 5834 5835
5809 5808 5808 5808 5807 5807 5806 5806 5805 5805 5804 5804 5804 5803 5803 5802 5802 5803 5803 5804 5805 5805 5806 5807 5807 5808 5809 5810 5811 5812 5813 5814 5815 5817 5818 5819 5821 5822 5824 5825 5826 5828 5829
5802 5801 5801 5800 5800 5800 5799 5799 5798 5797 5797 5796 5796 5796 5796 5795 5795 5796 5796 5797 5798 5798 5799 5800 5800 5801 5802 5803 5804 5805 5807 5807 5809 5810 5811 5813 5814 5816 5817 5819 5820 5821 5822
5794 5793 5793 5792 5792 5792 5792 5791 5790 5790 5789 5787 5788 5788 5788 5789 5788 5789 5789 5789 5790 5791 5792 5793 5793 5794 5795 5796 5797 5798 5799 5801 5802 5803 5805 5806 5808 5809 5811 5812 5813 5814 5816
5786 5785 5785 5784 5785 5784 5784 5783 5783 5782 5781 5780 5780 5780 5780 5781 5781 5781 5781 5782 5783 5783 5784 5785 5785 5786 5787 5788 5789 5791 5792 5793 5794 5796 5797 5799 5801 5802 5804 5805 5807 5808 5809
5778 5777 5776 5776 5776 5776 5776 5776 5774 5774 5774 5773 5772 5772 5773 5773 5774 5774 5774 5774 5775 5776 5776 5777 5778 5778 5779 5780 5781 5783 5785 5786 5787 5789 5790 5792 5794 5796 5797 5798 5800 5801 5802
5771 5769 5769 5769 5769 5768 5768 5767 5767 5766 5766 5765 5765 5765 5765 5765 5765 5766 5767 5767 5767 5768 5768 5769 5770 5771 5772 5773 5774 5775 5777 5779 5780 5782 5783 5785 5787 5789 5790 5792 5793 5795 5796
5764 5762 5762 5761 5761 5761 5760 5760 5759 5759 5758 5758 5757 5757 5757 5757 5757 5758 5759 5759 5759 5760 5760 5761 5762 5763 5764 5765 5767 5768 5770 5772 5773 5775 5777 5778 5780 5782 5783 5785 5786 5788 5789
5757 5755 5754 5754 5753 5753 5753 5752 5752 5751 5751 5750 5750 5749 5749 5750 5750 5750 5750 5751 5751 5752 5752 5753 5754 5755 5756 5758 5759 5761 5763 5765 5766 5768 5770 5771 5773 5774 5776 5778 5779 5781 5782
5750 5748 5747 5746 5746 5746 5745 5745 5744 5744 5743 5743 5742 5742 5742 5742 5742 5742 5742 5743 5743 5744 5744 5745 5746 5747 5748 5750 5751 5753 5755 5757 5759 5760 5762 5764 5765 5767 5769 5770 5772 5773 5775
5743 5742 5741 5739 5739 5738 5738 5738 5737 5737 5736 5735 5735 5735 5734 5734 5734 5734 5734 5734 5735 5736 5737 5737 5738 5739 5740 5742 5743 5745 5747 5749 5750 5752 5754 5756 5758 5759 5761 5763 5764 5766 5767
5736 5736 5734 5733 5733 5732 5731 5731 5730 5730 5729 5729 5728 5728 5727 5727 5727 5726 5726 5727 5727 5728 5729 5730 5730 5731 5733 5734 5735 5737 5739 5741 5742 5745 5747 5748 5750 5752 5753 5755 5757 5758 5760
5731 5730 5729 5728 5727 5726 5725 5725 5724 5723 5723 5722 5722 5721 5720 5719 5719 5719 5719 5719 5720 5720 5721 5722 5723 5724 5725 5726 5727 5729 5731 5733 5735 5737 5739 5741 5742 5744 5745 5747 5749 5750 5752
5726 5725 5724 5722 5721 5721 5720 5719 5718 5717 5717 5716 5715 5715 5714 5713 5713 5712 5713 5713 5713 5713 5714 5715 5716 5717 5717 5718 5719 5721 5723 5725 5727 5729 5731 5732 5734 5736 5737 5739 5741 5742 5744
5722 5720 5719 5717 5716 5716 5715 5713 5713 5712 5711 5711 5710 5709 5708 5707 5707 5706 5706 5706 5706 5707 5707 5708 5709 5710 5710 5711 5712 5713 5715 5717 5719 5720 5722 5724 5726 5728 5729 5731 5733 5734 5736
5717 5716 5714 5713 5712 5711 5710 5708 5707 5707 5706 5705 5704 5703 5702 5702 5701 5700 5700 5700 5700 5700 5700 5701 5701 5702 5703 5703 5704 5705 5707 5709 5711 5712 5714 5716 5718 5719 5721 5723 5724 5726 5727
5713 5712 5710 5708 5707 5706 5705 5703 5703 5702 5701 5700 5699 5698 5697 5696 5695 5694 5694 5693 5693 5693 5693 5693 5694 5695 5695 5696 5696 5697 5699 5701 5702 5704 5706 5708 5709 5711 5713 5714 5716 5717 5719
5710 5708 5706 5705 5703 5702 5701 5699 5698 5697 5696 5695 5694 5693 5692 5691 5690 5689 5688 5687 5687 5686 5686 5686 5687 5687 5687 5688 5689 5690 5691 5693 5694 5696 5697 5699 5701 5703 5704 5706 5707 5709 5711
5707 5705 5703 5701 5700 5698 5696 5695 5694 5693 5692 5691 5689 5688 5687 5686 5685 5684 5682 5681 5681 5680 5679 5679 5679 5679 5679 5680 5681 5682 5683 5684 5686 5687 5689 5691 5692 5694 5696 5697 5699 5700 5702
5704 5702 5700 5698 5696 5694 5693 5691 5690 5688 5687 5686 5684 5683 5682 5680 5679 5678 5677 5675 5674 5673 5672 5672 5672 5672 5672 5673 5674 5675 5675 5677 5678 5679 5680 5682 5684 5685 5687 5688 5690 5692 5694
5702 5700 5697 5695 5693 5691 5689 5688 5686 5684 5683 5681 5680 5678 5677 5675 5674 5673 5671 5670 5669 5668 5667 5666 5666 5665 5665 5666 5666 5667 5668 5669 5671 5672 5673 5674 5676 5677 5679 5680 5682 5683 5685
5699 5697 5695 5693 5691 5689 5687 5685 5683 5681 5679 5677 5676 5674 5673 5671 5669 5667 5666 5664 5663 5662 5661 5660 5660 5659 5659 5659 5659 5660 5661 5662 5663 5664 5666 5667 5668 5670 5671 5673 5674 5675 5677